Weather in Ershichy

Russia / Smolensk Oblast     53°40′21″N   32°45′17″E
temp.,
°C
wind,
m/s
gust,
m/s
humid.,
%
clouds,
%
prec.,
mm/h
press.,
hPa
HPBL,
m
9 march, tue
tue900:00−10nnw379541 0.0 1014230
03:00−12nnw379562 0.1 1016210
06:00−13nnw369584 0.0 1017187
09:00−12nnw378981 0.0 1019293
12:00−8nnw467725 0.0 1020785
15:00−7nnw467563 0.1 10201028
18:00−8nnw3682100 0.1 1021640
21:00−12nw239467 0.1 102458
10 march, wed
wed1000:00−13nw229413 0.0 102524
03:00−13wnw129345 0.0 102626
06:00−12wsw1291100 0.0 102625
09:00−10ssw3593100 0.5 1026272
12:00−6w3690100 1.2 1026586
15:00−4w3689100 2.3 1026644
18:00−8ene5893100 1.4 1027390
21:00−11e4893100 1.9 1029348
11 march, thu
thu1100:00−14e389497 0.1 1031273
03:00−16ese379697 0.1 1032236
06:00−17ese378999 0.0 1032228
09:00−17ese368790 0.0 1033228
12:00−11se35830 0.0 1032370
15:00−8se358116 0.0 1032554
18:00−9se368990 0.0 1031352
21:00−13se389381 0.0 1031225
12 march, fri
fri1200:00−15se389421 0.0 1031223
03:00−15sse389642 0.0 1030239
06:00−15sse41095100 0.0 1029272
09:00−11sse5128766 0.0 1027376
12:00−6sse6137897 0.0 1025711
15:00−4s7137699 0.0 10231067
18:00−5sse71581100 0.0 1021991
21:00−6s81692100 0.8 10201014
13 march, sat
sat1300:00−6s81693100 1.6 10181046
03:00−5s71594100 3.3 1016772
06:00−3ssw51194100 0.9 1016439
09:00−1ssw51097100 1.8 1018482
12:00+1ssw5997100 0.2 1018605
15:00+1ssw41097100 0.3 1018599
18:00+1s51197100 0.0 1017501
21:000s51197100 0.0 1016604